Weather in Ereymentau

Kazakhstan     51°37′10″N   73°06′09″E
temp.,
°C
wind,
m/s
gust,
m/s
humid.,
%
clouds,
%
prec.,
mm/h
press.,
hPa
HPBL,
m
28 november, sun
sun2800:00−10sw818804 0.0 1039310
03:00−12sw716795 0.0 1040247
06:00−14sw513815 0.0 1041172
09:00−15ssw510824 0.0 1041125
12:00−11sw410805 0.0 1041170
15:00−10ssw37818 0.0 1039114
18:00−13s33765 0.0 104022
21:00−13sse32695 0.0 103911
29 november, mon
mon2900:00−13sse22625 0.0 103810
03:00−12sse326161 0.0 103610
06:00−12sse3259100 0.0 103510
09:00−11s226072 0.0 103410
12:00−7s226961 0.0 103314
15:00−8ssw227257 0.0 103210
18:00−11s2262100 0.0 103210
21:00−10s2263100 0.0 103110
30 november, tue
tue3000:00−10s2265100 0.0 103010
03:00−10s2267100 0.0 103013
06:00−10ssw3467100 0.0 102931
09:00−10ssw3369100 0.0 102829
12:00−6ssw3673100 0.0 102899
15:00−4ssw4117498 0.0 1027209
18:00−8ssw49785 0.0 102799
21:00−9ssw49824 0.0 102898
1 december, wed
wed100:00−9ssw49814 0.0 1027102
03:00−10ssw47834 0.0 102870
06:00−8s49792 0.0 102693
09:00−10ssw47812 0.0 102778
12:00−5ssw412780 0.0 1025200
15:00−4ssw4117826 0.0 1024190
18:00−7s49786 0.0 102594
21:00−6ssw410745 0.0 1023102
2 december, thu
thu200:00−5s51072100 0.0 1021108
03:00−5s4107194 0.0 102097
06:00−4s5106784 0.0 1019105
09:00−2s61564100 0.0 1018192
12:00+1s7185996 0.0 1016287
15:00+3ssw81861100 0.0 1013336
18:00+3ssw81863100 0.0 1012312
21:00+4ssw92067100 0.0 1010414